Overview Statistics Trail Chart Weather Telemetry Raw packets
 

This is the latest recevied weather packets stored in our database for station/object SV1JSO-13. If no packets are shown the sender has not sent any weather packets the latest 10 day(s).

<< 97 98 99 100 101 102 103 >>
Time Temp. Humidity Pressure Rain* Wind** Luminosity Snow
1787934900 30.56° C 45% 1007.8 hPa 0 mm - 23 W/m² -
1787934600 30.56° C 45% 1007.9 hPa 0 mm - 29 W/m² -
1787934300 30.56° C 44% 1007.9 hPa 0 mm - 36 W/m² -
1787934000 30.56° C 45% 1007.8 hPa 0 mm - 43 W/m² -
1787933700 30.56° C 44% 1007.9 hPa 0 mm - 51 W/m² -
1787933400 30.56° C 44% 1007.9 hPa 0 mm - 59 W/m² -
1787933100 30.56° C 44% 1007.8 hPa 0 mm - 68 W/m² -
1787932800 30.56° C 44% 1007.9 hPa 0 mm - 77 W/m² -
1787932500 30.56° C 44% 1007.9 hPa 0 mm - 91 W/m² -
1787932200 31.11° C 44% 1007.8 hPa 0 mm - 96 W/m² -
1787931900 31.11° C 44% 1007.8 hPa 0 mm - 109 W/m² -
1787931600 30.56° C 44% 1007.7 hPa 0 mm - 119 W/m² -
1787931300 31.11° C 44% 1007.6 hPa 0 mm - 132 W/m² -
1787931000 31.11° C 44% 1007.6 hPa 0 mm - 142 W/m² -
1787930700 31.11° C 44% 1007.7 hPa 0 mm - 158 W/m² -
1787930400 31.11° C 44% 1007.6 hPa 0 mm - 170 W/m² -
1787930100 31.11° C 44% 1007.6 hPa 0 mm - 189 W/m² -
1787929800 31.67° C 43% 1007.8 hPa 0 mm - 196 W/m² -
1787929500 31.11° C 43% 1007.6 hPa 0 mm - 206 W/m² -
1787929205 31.67° C 43% 1007.8 hPa 0 mm - 224 W/m² -
1787928900 31.67° C 43% 1007.7 hPa 0 mm - 237 W/m² -
1787928600 31.67° C 43% 1007.7 hPa 0 mm - 251 W/m² -
1787928300 31.67° C 42% 1007.7 hPa 0 mm - 259 W/m² -
1787928000 31.67° C 42% 1007.7 hPa 0 mm - 272 W/m² -
1787927700 31.67° C 42% 1007.8 hPa 0 mm - 287 W/m² -

* Rain latest hour (hover to see other rain measurements)
** Current wind speed in m/s (hover to see current wind gust speed)